Terminal Aerodrome Forecast
Issued by NWS

Home | Current Version | Previous Version | Graphics & Text | Print | Product List | Glossary On
Versions: 1 2 3 4 5 6 7 8 9 10 11 12 13 14 15 16 17 18 19 20 21 22 23 24 25
577
FTUS43 KBIS 251728
TAFDIK
TAF
KDIK 251728Z 2518/2618 14004KT P6SM -SHRA OVC018
      TEMPO 2518/2521 -SHRA SCT020 OVC035
     FM252100 10006KT P6SM SCT025 BKN030
     FM260600 16004KT P6SM SCT020 BKN035
     FM260800 17004KT P6SM VCFG SCT025 BKN035
     FM261700 24005KT P6SM FEW030 SCT035=

USA.gov is the U.S. government's official web portal to all federal, state and local government web resources and services.